Location: Famechon
(49.7599°N, 2.0615°E)
Time: 14:06:57
(UTC+00:00)

Cosmos 2322 Rocket - Pass Details

Date: 03 February 2023
Orbit: 832 x 851 km, 71.0° (Epoch: 21 March)

Event Time Altitude Azimuth Distance (km) Brightness Sun altitude
Rises 19:59:41 0° 246° (WSW) 3,371 6.1 -30.8°
Reaches altitude 10° 20:02:29 10° 259° (WSW) 2,441 5.3 -31.2°
Maximum altitude 20:07:12 27° 316° (NW) 1,556 4.0 -32.0°
Enters shadow 20:10:06 18° 359° (N) 1,944 4.2 -32.4°
